EW4907 Weather Reports


Display with metric or nautical units.
time (UTC)temp
F
wind
direction
speed
MPH
gust
MPH
rain 1hr
in
rain 24hr
in
rain mn
in
humidity
%
barometer
mb
20260509230100 86 149 4.0 8.0 0.00 0.02 0.02 48 1008.2
20260509224559 86 113 3.0 9.0 0.00 0.02 0.02 53 1008.2
20260509223059 86 108 4.0 8.0 0.00 0.02 0.02 55 1008.2
20260509221558 86 94 3.0 7.0 0.00 0.02 0.02 54 1008.1
20260509220107 86 86 3.0 6.0 0.00 0.02 0.02 55 1008.1
20260509214556 84 192 0.0 7.0 0.00 0.02 0.02 58 1008.3
20260509213053 81 178 2.0 10.0 0.00 0.02 0.02 61 1008.5
20260509211554 80 142 9.0 17.0 0.00 0.02 0.02 55 1008.9
20260509210050 79 105 9.0 18.0 0.00 0.02 0.02 56 1009.0
20260509204549 84 101 8.0 18.0 0.00 0.02 0.02 53 1009.1
20260509203147 88 299 2.0 9.0 0.00 0.02 0.02 48 1008.9
20260509201546 88 219 6.0 9.0 0.00 0.02 0.02 48 1009.0
20260509200054 90 302 2.0 5.0 0.00 0.02 0.02 50 1009.3
20260509194541 88 258 3.0 10.0 0.00 0.02 0.02 52 1009.3
20260509193039 86 237 3.0 5.0 0.00 0.02 0.02 55 1009.7
20260509191544 86 351 3.0 9.0 0.00 0.02 0.02 54 1009.7
20260509190034 87 306 6.0 10.0 0.00 0.02 0.02 55 1010.0
20260509184534 85 347 3.0 6.0 0.00 0.02 0.02 60 1010.2
20260509183031 84 299 3.0 7.0 0.00 0.02 0.02 60 1010.6
20260509181531 86 264 3.0 8.0 0.00 0.02 0.02 61 1010.7
20260509180026 83 153 0.0 6.0 0.00 0.02 0.02 66 1010.8
20260509174526 83 319 3.0 7.0 0.00 0.02 0.02 65 1011.2
20260509173025 82 251 3.0 7.0 0.00 0.02 0.02 68 1011.3
20260509171523 83 221 2.0 8.0 0.00 0.02 0.02 69 1011.2
20260509170021 82 268 2.0 5.0 0.00 0.02 0.02 72 1011.4
20260509164519 80 253 4.0 8.0 0.00 0.02 0.02 74 1011.4
20260509163014 79 183 3.0 10.0 0.00 0.02 0.02 78 1011.4
20260509161512 78 213 3.0 8.0 0.00 0.02 0.02 81 1011.4
20260509160012 77 285 2.0 6.0 0.00 0.02 0.02 85 1011.3
20260509154513 75 248 2.0 7.0 0.00 0.02 0.02 92 1011.5
20260509153105 73 179 3.0 8.0 0.00 0.02 0.02 96 1011.7
20260509151608 72 180 4.0 10.0 0.00 0.02 0.02 96 1011.8
20260509150056 72 165 4.0 7.0 0.00 0.02 0.02 96 1011.8
20260509144554 71 167 3.0 6.0 0.00 0.02 0.02 96 1011.3
20260509143054 71 210 3.0 7.0 0.00 0.02 0.02 96 1011.2
20260509141553 71 139 5.0 10.0 0.00 0.02 0.02 96 1011.0
20260509140052 71 139 2.0 5.0 0.00 0.02 0.02 96 1011.0
20260509134551 71 336 0.0 4.0 0.00 0.02 0.02 96 1011.2
20260509133050 71 329 0.0 3.0 0.00 0.02 0.02 96 1011.5
20260509131551 71 54 0.0 4.0 0.00 0.02 0.02 96 1011.5
20260509130059 71 316 2.0 5.0 0.00 0.02 0.02 96 1010.9
20260509124549 70 37 2.0 5.0 0.01 0.02 0.02 96 1010.9
20260509123051 70 322 3.0 6.0 0.01 0.02 0.02 96 1010.9
20260509121547 70 75 0.0 2.0 0.01 0.02 0.02 96 1010.9
20260509120055 70 18 1.0 4.0 0.01 0.02 0.02 96 1011.2
20260509114547 70 338 1.0 5.0 0.00 0.01 0.01 96 1011.3
20260509113046 70 58 2.0 5.0 0.00 0.01 0.01 96 1011.7
20260509111545 70 79 2.0 8.0 0.00 0.01 0.01 96 1011.8
20260509110044 70 53 4.0 8.0 0.00 0.01 0.01 96 1011.8
20260509104544 71 33 3.0 7.0 0.00 0.01 0.01 96 1012.0
20260509103042 71 22 1.0 4.0 0.00 0.01 0.01 96 1011.8
20260509101540 71 91 1.0 3.0 0.00 0.01 0.01 96 1011.3
20260509100038 71 94 0.0 3.0 0.01 0.01 0.01 96 1011.0
20260509094537 70 94 1.0 3.0 0.01 0.01 0.01 96 1010.6
20260509093037 70 97 1.0 3.0 0.01 0.01 0.01 96 1010.8
20260509091536 70 62 0.0 1.0 0.01 0.01 0.01 96 1010.6
20260509090035 70 63 0.0 2.0 0.00 0.00 0.00 95 1010.5
20260509084537 70 86 1.0 4.0 0.00 0.00 0.00 95 1010.8
20260509083038 70 53 1.0 4.0 0.00 0.00 0.00 95 1011.0
20260509081537 71 57 1.0 3.0 0.00 0.00 0.00 95 1010.9
20260509080039 71 127 1.0 2.0 0.00 0.00 0.00 95 1010.9
20260509074532 71 131 0.0 3.0 0.00 0.00 0.00 94 1010.8
20260509073031 71 127 2.0 5.0 0.00 0.00 0.00 94 1010.7
20260509071530 71 128 1.0 5.0 0.00 0.00 0.00 94 1010.9
20260509070030 71 193 1.0 4.0 0.00 0.00 0.00 94 1011.1
20260509064528 71 234 1.0 7.0 0.00 0.00 0.00 94 1011.1
20260509063026 71 153 3.0 9.0 0.00 0.00 0.00 93 1010.5
20260509061526 71 155 6.0 12.0 0.00 0.00 0.00 93 1010.7
20260509060027 71 283 6.0 13.0 0.00 0.00 0.00 93 1010.8
20260509054523 71 153 6.0 14.0 0.00 0.00 0.00 92 1010.6
20260509053030 71 186 6.0 11.0 0.00 0.00 0.00 92 1010.7
20260509051519 71 179 5.0 12.0 0.00 0.00 0.00 92 1010.6
20260509050019 71 153 4.0 8.0 0.00 0.00 0.00 92 1010.4
20260509044516 71 166 3.0 7.0 0.00 0.00 0.00 91 1010.3
20260509043015 71 154 2.0 7.0 0.00 0.00 0.00 91 1010.4
20260509041515 71 150 3.0 8.0 0.00 0.00 0.00 90 1010.5
20260509040013 72 192 2.0 6.0 0.00 0.00 0.00 89 1010.9
20260509034512 72 182 1.0 5.0 0.00 0.00 0.00 88 1010.9
20260509033012 72 134 2.0 4.0 0.00 0.00 0.00 88 1010.9
20260509031520 72 144 1.0 3.0 0.00 0.00 0.00 88 1010.7
20260509030014 72 132 4.0 6.0 0.00 0.00 0.00 88 1010.3
20260509024511 72 148 3.0 6.0 0.00 0.00 0.00 87 1010.3
20260509023016 72 157 2.0 5.0 0.00 0.00 0.00 87 1010.3
20260509021509 72 160 1.0 4.0 0.00 0.00 0.00 87 1010.2
20260509020011 72 136 2.0 6.0 0.00 0.00 0.00 86 1009.7
20260509014507 73 141 2.0 7.0 0.00 0.00 0.00 85 1009.4
20260509013007 74 128 4.0 7.0 0.00 0.00 0.00 84 1009.4
20260509011606 74 137 1.0 4.0 0.00 0.00 0.00 82 1009.5
20260509010005 75 147 3.0 8.0 0.00 0.00 0.00 81 1009.5
20260509004512 75 138 3.0 7.0 0.00 0.00 0.00 80 1009.3
20260509003006 75 165 2.0 7.0 0.00 0.00 0.00 79 1009.3
20260509001507 76 146 2.0 5.0 0.00 0.00 0.00 78 1009.4
20260509000002 76 191 3.0 9.0 0.00 0.00 0.00 78 1009.4
20260508234501 76 139 4.0 8.0 0.00 0.00 0.00 77 1009.4
20260508233104 76 169 4.0 10.0 0.00 0.00 0.00 76 1009.4
20260508231559 77 141 3.0 11.0 0.00 0.00 0.00 75 1009.4